Location: Byszew
(52.1813°N, 19.2693°E)
Time: 21:21:23
(UTC+00:00)

RS-44 - Visible Passes

Search period start: 27 June 2022 00:00
Search period end: 07 July 2022 00:00
Orbit: 1175 x 1509 km, 82.5° (Epoch: 27 June)

Date Brightness Start Highest point End Pass type
(mag) Time Alt. Az. Time Alt. Az. Time Alt. Az.
27 Jun ? 19:54:06 10° SSW 20:02:15 81° WNW 20:11:02 10° N visible
27 Jun ? 21:50:43 10° WSW 21:57:18 25° NW 22:04:12 10° N visible
28 Jun ? 20:18:10 10° SSW 20:26:14 59° WNW 20:34:54 10° N visible
28 Jun ? 22:16:26 10° W 22:21:59 19° NW 22:27:46 10° N visible
29 Jun ? 20:42:38 10° SW 20:50:25 43° WNW 20:58:41 10° N visible
29 Jun ? 22:42:49 10° WNW 22:46:54 14° NW 22:51:06 10° N visible
30 Jun ? 21:07:32 10° WSW 21:14:47 31° WNW 21:22:26 10° N visible
30 Jun ? 23:10:29 10° NW 23:12:00 10° NNW 23:13:31 10° NNW visible
01 Jul ? 21:32:52 10° W 21:39:20 23° NW 21:46:04 10° N visible
02 Jul ? 20:00:01 10° SSW 20:08:09 55° WNW 20:16:48 10° N visible
02 Jul ? 21:58:45 10° W 22:04:06 17° NW 22:09:35 10° N visible
03 Jul ? 20:24:35 10° SW 20:32:22 40° WNW 20:40:35 10° N visible
03 Jul ? 22:25:19 10° WNW 22:29:03 13° NW 22:32:51 10° N visible
04 Jul ? 20:49:36 10° WSW 20:56:47 29° NW 21:04:18 10° N visible
05 Jul ? 21:15:05 10° W 21:21:24 22° NW 21:27:56 10° N visible
06 Jul ? 19:41:53 10° SW 19:50:04 50° WNW 19:58:42 10° N visible
06 Jul ? 21:41:08 10° WNW 21:46:12 16° NW 21:51:24 10° N visible
